Location: Unspecified
(44.0704°N, 88.6889°W)
Time: 03:30:20
(UTC+02:00)

Altair - Pass Details

Date: 20 June 2019
Orbit: 1501 x 1683 km, 47.2° (Epoch: 19 August)

Event Time Altitude Azimuth Distance (km) Brightness Sun altitude
Rises 09:47:55 0° 293° (WNW) 4,854 10.1 -17.8°
Reaches altitude 10° 09:51:01 10° 291° (WNW) 3,886 9.5 -17.6°
Maximum altitude 10:00:56 70° 211° (SSW) 1,761 7.6 -16.7°
Drops below altitude 10° 10:11:00 10° 130° (SE) 3,938 9.6 -15.8°
Sets 10:14:10 0° 128° (SE) 4,921 10.1 -15.5°
